[[{"header":{"parameterUnit":"m.s-1","parameterCategory":1,"la1":30.2991,"la2":30.254,"lo1":-89.0895,"lo2":-89.0444,"dy":0.0017,"dx":0.0017,"nx":28,"ny":28,"refTime":"2023-08-19T21:00:00:Z","depth":0,"parameterNumber":2,"parameterNumberName":"U-component_of_WINDS"},"data":[0,0,0,0,0,0,0,0,0,0,0,0,0,0,0,0,0,0,0,0,0,0,0,0,0,0,0,0,0,0,0,0,0,0,0,0,0,0,0,0,0,0,0,0,0,0,0,0,0,0,0,0,0,0,0,0,0,0,-0.0154,-0.0152,0,-0.0042,-0.0041,-0.004,0.0006,0.0006,0.0005,0.0005,0.0118,0.0121,0.0124,0,0,0,0,0,0,0,0,0,0,0,0,0,-0.0329,-0.0326,-0.0154,-0.0152,-0.0151,-0.0043,-0.0041,-0.004,0.0006,0.0006,0.0005,0.0005,0.0116,0.012,0.0124,0,0,0,0,0,0,0,0,0,0,0,0,0,-0.0239,-0.0325,-0.0154,-0.0115,-0.0111,-0.0043,-0.0041,-0.0039,0.0006,0.0006,0.0005,0.0005,0.0115,0.012,0.0125,0.0162,0,0,0.0139,0.0141,0,0,0,0,0,0,0,0,-0.0244,-0.0232,-0.0122,-0.0118,-0.0112,-0.0032,-0.0061,0.0028,0.0006,-0.0038,0.0005,0.0005,0.0068,0.0076,0.0098,0.0167,0.0172,0.014,0.0143,0.0145,0.0146,0,0,0,0,0,0,0,-0.025,-0.0237,-0.011,-0.0121,-0.0115,-0.0104,-0.0092,-0.0044,0.0015,-0.0035,-0.0031,-0.0018,0.007,0.0093,0.0101,0.0173,0.014,0.0144,0.0147,0.0149,0.0278,0.0278,0,0,0,0,0,0,-0.0262,-0.0242,-0.0113,-0.0106,-0.018,-0.01,-0.0087,-0.0058,0.0015,0.0026,-0.0018,-0.0017,0.0085,0.0095,0.0105,0.0153,0.0145,0.0149,0.0152,0.0277,0.0278,0.0279,0,0,0,0,0,0,-0.0266,-0.0251,-0.0118,-0.0173,-0.0155,-0.0097,-0.0065,-0.0055,-0.0032,0.0027,0.0038,-0.0006,0.0085,0.0098,0.0147,0.0158,0.0151,0.0156,0.0277,0.0278,0.0278,0.025,0,0,0,0,0,0,-0.0272,-0.0253,-0.0238,-0.0173,-0.0153,-0.0077,-0.0064,-0.0053,-0.0024,-0.0021,0.0042,0.0052,0.0086,0.014,0.0152,0.0164,0.016,0.0276,0.0277,0.0278,0.025,0.0249,0.0249,0,0,0,0,0,-0.0278,-0.0251,-0.0237,-0.0222,-0.0132,-0.0077,-0.0065,-0.0026,-0.0023,-0.0008,0.003,0.005,0.0155,0.0144,0.0159,0.0173,0.0276,0.0277,0.0278,0.025,0.025,0.0249,0,0,0,0,0,0,-0.0317,-0.0242,-0.0226,-0.0177,-0.0133,-0.0069,-0.0048,-0.0028,0.0016,0.0017,0.0063,0.0077,0.0122,0.0152,0.0139,0.0212,0.0217,0.0221,0.0191,0.0191,0.019,0.0182,0.0164,0,0,0,0,0,-0.0319,-0.0279,-0.0216,-0.0179,-0.0158,-0.0107,-0.0081,-0.0055,-0.0008,0.001,0.0052,0.0096,0.0139,0.0167,0.0209,0.0255,0.0269,0.0271,0.0271,0.027,0.0273,0.0299,0.0301,0.0283,0.0283,0.0283,0,0,-0.0325,-0.0279,-0.0257,-0.0186,-0.0149,-0.0109,-0.0092,-0.0051,-0.0021,0.0016,0.0065,0.0098,0.015,0.0197,0.022,0.0224,0.0281,0.0271,0.027,0.0274,0.03,0.0302,0.0304,0.0283,0.0283,0.0283,0,0,-0.0314,-0.0275,-0.024,-0.0203,-0.0148,-0.0114,-0.0106,-0.0044,-0.0021,0.0029,0.0058,0.0094,0.0167,0.0203,0.0231,0.0255,0.0275,0.0267,0.0265,0.029,0.0291,0.0293,0.0301,0.0304,0.027,0.027,0.027,0,-0.0328,-0.0266,-0.0225,-0.0185,-0.0155,-0.0119,-0.0083,-0.0049,0.0017,0.0037,0.004,0.0133,0.017,0.0227,0.0232,0.0254,0.0265,0.0261,0.0288,0.029,0.0292,0.03,0.0304,0.0269,0.0269,0.0269,0.0269,0,-0.0286,-0.0244,-0.0222,-0.0158,-0.0126,-0.0088,-0.0042,-0.0014,0.001,0.0043,0.0093,0.014,0.0192,0.0208,0.0231,0.0267,0.0268,0.0279,0.0284,0.0291,0.03,0.0304,0.0267,0.0268,0.0268,0.0268,0,0,-0.0297,-0.021,-0.0203,-0.0173,-0.0109,-0.0076,-0.0037,0.0015,0.0038,0.0083,0.0116,0.0177,0.0188,0.022,0.0247,0.0269,0.0285,0.0277,0.0279,0.0277,0.0328,0.0319,0.0323,0.0298,0.0299,0.03,0.0324,0,-0.0278,-0.0205,-0.0167,-0.0111,-0.0072,-0.0037,-0.0003,0.004,0.0072,0.0109,0.0144,0.0187,0.0198,0.0217,0.024,0.0278,0.0296,0.0277,0.033,0.0331,0.0316,0.0327,0.0319,0.0339,0.0327,0.0328,0.0329,0,-0.0246,-0.0201,-0.0141,-0.0081,-0.0063,-0.0033,0.0018,0.0054,0.0102,0.0124,0.0159,0.0186,0.0228,0.023,0.0289,0.0275,0.0299,0.0321,0.0323,0.0329,0.033,0.0334,0.0346,0.0349,0.0334,0.0334,0.0334,0,-0.0259,-0.0184,-0.0138,-0.0114,-0.0043,-0.0023,0.0007,0.0056,0.0085,0.0129,0.0149,0.0197,0.0223,0.026,0.0299,0.0297,0.0353,0.0359,0.0372,0.0371,0.0383,0.0382,0.0399,0.0398,0.0398,0.0398,0.0398,0,-0.0242,-0.0206,-0.0143,-0.0115,-0.0075,-0.0031,0.0007,0.004,0.0083,0.0118,0.015,0.0182,0.0232,0.027,0.03,0.0344,0.0356,0.0374,0.0382,0.0371,0.0369,0.0388,0.0388,0.0399,0.0398,0.0398,0.0398,0,-0.025,-0.0206,-0.0154,-0.0091,-0.0074,-0.0048,0.0006,0.0034,0.0068,0.0111,0.0124,0.0177,0.0223,0.0265,0.0327,0.0347,0.0391,0.0401,0.0375,0.0379,0.0391,0.0389,0.0421,0.0427,0.0421,0.0421,0.0421,0,-0.0242,-0.0213,-0.0147,-0.0121,-0.0091,-0.005,-0.002,0.0024,0.0053,0.0111,0.0132,0.0181,0.0222,0.0294,0.0338,0.0385,0.0396,0.0404,0.0403,0.0392,0.0396,0.0394,0.0397,0.0403,0.0403,0.0403,0.0403,0,-0.0231,-0.0211,-0.0169,-0.0119,-0.0084,-0.0043,-0.0001,0.0019,0.007,0.0102,0.015,0.0182,0.0245,0.0292,0.0344,0.0375,0.0397,0.0403,0.0408,0.0398,0.0382,0.0391,0.0373,0.0402,0.0402,0.0402,0.0402,0.0402,-0.0231,-0.0204,-0.0153,-0.0107,-0.0071,-0.0032,-0.0002,0.0035,0.0076,0.0131,0.0154,0.0203,0.0251,0.0323,0.0354,0.0392,0.0397,0.0405,0.0407,0.0408,0.0406,0.0375,0.0402,0.0402,0.0402,0.0402,0.0402,0,-0.0218,-0.0184,-0.0142,-0.0084,-0.0048,-0.0029,0.0019,0.0047,0.009,0.0133,0.0173,0.0228,0.0274,0.0321,0.037,0.0392,0.0404,0.0403,0.0402,0.0409,0.0399,0.039,0.0393,0.0393,0.0393,0.0393,0.0393,0.0393,-0.0208,-0.0162,-0.0135,-0.0071,-0.0037,0.0012,0.0037,0.0073,0.0108,0.0168,0.0207,0.0237,0.0282,0.0335,0.0378,0.0391,0.0407,0.0404,0.0419,0.0409,0.041,0.041,0.0401,0.0407,0.0407,0.0426,0.0426,0.0427]},{"header":{"parameterUnit":"m.s-1","parameterCategory":1,"la1":30.2991,"la2":30.254,"lo1":-89.0895,"lo2":-89.0444,"dy":0.0017,"dx":0.0017,"nx":28,"ny":28,"refTime":"2023-08-19T21:00:00:Z","depth":0,"parameterNumber":3,"parameterNumberName":"V-component_of_WINDS"},"data":[0,0,0,0,0,0,0,0,0,0,0,0,0,0,0,0,0,0,0,0,0,0,0,0,0,0,0,0,0,0,0,0,0,0,0,0,0,0,0,0,0,0,0,0,0,0,0,0,0,0,0,0,0,0,0,0,0,0,4.7364,4.7363,0,4.7282,4.7281,4.728,4.7165,4.7163,4.7161,4.716,4.7074,4.7074,4.7073,0,0,0,0,0,0,0,0,0,0,0,0,0,4.7418,4.7418,4.7364,4.7363,4.7362,4.7282,4.7281,4.728,4.7166,4.7163,4.7161,4.7159,4.7074,4.7074,4.7073,0,0,0,0,0,0,0,0,0,0,0,0,0,4.7372,4.7418,4.7364,4.7295,4.7288,4.7283,4.7281,4.728,4.7166,4.7163,4.716,4.7158,4.7075,4.7074,4.7073,4.7128,0,0,4.7071,4.7071,0,0,0,0,0,0,0,0,4.7375,4.737,4.7306,4.73,4.7292,4.7231,4.7269,4.7229,4.7167,4.7213,4.716,4.7156,4.7129,4.7123,4.7114,4.7124,4.712,4.7071,4.7071,4.7071,4.707,0,0,0,0,0,0,0,4.7378,4.7373,4.7331,4.7305,4.7297,4.7268,4.7258,4.7261,4.7188,4.7208,4.72,4.7192,4.7124,4.7115,4.7112,4.7119,4.7071,4.7071,4.707,4.707,4.7168,4.7171,0,0,0,0,0,0,4.7392,4.7376,4.7334,4.7329,4.7327,4.7269,4.7258,4.7254,4.7188,4.7175,4.7194,4.7187,4.7118,4.7113,4.7108,4.7167,4.7071,4.707,4.707,4.7165,4.7169,4.7172,0,0,0,0,0,0,4.7393,4.7389,4.7337,4.735,4.7341,4.7271,4.7267,4.7253,4.7244,4.7177,4.7163,4.7199,4.7115,4.7109,4.7124,4.7162,4.707,4.7069,4.7161,4.7166,4.717,4.7286,0,0,0,0,0,0,4.7395,4.739,4.7411,4.7352,4.7341,4.7355,4.727,4.7254,4.7244,4.7233,4.7178,4.7166,4.7113,4.7125,4.7123,4.716,4.7068,4.7158,4.7164,4.7169,4.7278,4.7294,4.7307,0,0,0,0,0,4.7398,4.7446,4.7412,4.7408,4.7365,4.7358,4.7352,4.729,4.7248,4.7267,4.7224,4.7167,4.7159,4.7128,4.7124,4.7162,4.7155,4.7162,4.7168,4.7272,4.7291,4.7307,0,0,0,0,0,0,4.7511,4.7437,4.7399,4.743,4.7401,4.7338,4.7361,4.7312,4.7294,4.7285,4.7209,4.7197,4.7221,4.7193,4.716,4.721,4.7148,4.7155,4.7228,4.7246,4.726,4.7266,4.7068,0,0,0,0,0,4.754,4.7541,4.7476,4.7509,4.7497,4.7432,4.7426,4.7382,4.7348,4.7335,4.7293,4.7262,4.7252,4.7247,4.7235,4.7274,4.7259,4.7297,4.7312,4.7324,4.733,4.7348,4.7364,4.7194,4.7194,4.7194,0,0,4.76,4.7559,4.7564,4.7531,4.7503,4.7505,4.7422,4.7428,4.7428,4.7336,4.7347,4.7315,4.7276,4.7303,4.7312,4.728,4.7374,4.7333,4.7343,4.7342,4.7356,4.7373,4.7387,4.7199,4.7198,4.7197,0,0,4.7708,4.7678,4.7703,4.7677,4.7636,4.7592,4.7599,4.7543,4.7519,4.7529,4.746,4.7458,4.7443,4.7418,4.7403,4.7502,4.7449,4.75,4.7575,4.7593,4.7607,4.7618,4.7653,4.7666,4.7507,4.7507,4.7507,0,4.7787,4.7787,4.7721,4.7731,4.7718,4.7636,4.7659,4.7637,4.7595,4.7587,4.7551,4.753,4.7498,4.7518,4.7542,4.7533,4.7537,4.7506,4.761,4.7621,4.7631,4.7663,4.7676,4.7513,4.7513,4.7512,4.7511,0,4.7885,4.7887,4.7911,4.7873,4.7863,4.788,4.7816,4.7813,4.777,4.773,4.7741,4.7699,4.7676,4.7678,4.7635,4.7691,4.7672,4.7624,4.756,4.7654,4.7683,4.7695,4.7523,4.752,4.7518,4.7517,0,0,4.8063,4.7988,4.7998,4.7979,4.7929,4.7928,4.7941,4.7919,4.7918,4.7891,4.7899,4.7889,4.7844,4.7828,4.7781,4.7797,4.7877,4.7747,4.7745,4.7772,4.7936,4.7972,4.7987,4.7842,4.7844,4.7846,4.7939,0,4.8161,4.818,4.8121,4.8154,4.8153,4.8075,4.8086,4.8056,4.8019,4.8013,4.7971,4.7965,4.7907,4.7896,4.7909,4.7865,4.7909,4.7858,4.7848,4.7848,4.786,4.8002,4.804,4.8129,4.795,4.7952,4.7953,0,4.8278,4.8259,4.8292,4.8239,4.8236,4.8248,4.8222,4.8218,4.8182,4.8153,4.8135,4.8081,4.8089,4.8028,4.8037,4.8004,4.7996,4.7974,4.7976,4.7972,4.7906,4.8001,4.8157,4.817,4.797,4.7969,4.7968,0,4.8404,4.8386,4.8403,4.8389,4.8328,4.8338,4.8312,4.8273,4.8264,4.8242,4.8234,4.8214,4.8202,4.8187,4.8128,4.809,4.8144,4.8078,4.812,4.8121,4.8134,4.8134,4.829,4.8131,4.8131,4.813,4.813,0,4.852,4.8543,4.8458,4.8469,4.8492,4.8424,4.8449,4.8416,4.8382,4.8384,4.8314,4.8318,4.8241,4.8235,4.8189,4.8203,4.8198,4.8175,4.8162,4.8181,4.8184,4.8174,4.8167,4.8134,4.8133,4.8132,4.8132,0,4.8664,4.8608,4.8622,4.8563,4.8549,4.8569,4.8517,4.8524,4.8483,4.8487,4.8483,4.8419,4.8408,4.8349,4.8324,4.8293,4.8323,4.8299,4.8336,4.8328,4.8372,4.8369,4.8527,4.8544,4.8375,4.8377,4.8378,0,4.8741,4.8757,4.87,4.8697,4.8675,4.8671,4.8661,4.8595,4.8587,4.8547,4.8558,4.8543,4.8526,4.8514,4.8464,4.8444,4.8418,4.8475,4.8415,4.8433,4.8418,4.8418,4.8418,4.8488,4.849,4.8492,4.8493,0,4.8884,4.8855,4.8844,4.8824,4.8814,4.8795,4.8771,4.8772,4.8698,4.8693,4.8682,4.867,4.8645,4.863,4.8602,4.8575,4.8522,4.8513,4.8521,4.854,4.8561,4.8549,4.8371,4.8509,4.8507,4.8506,4.8505,4.8505,4.8996,4.9006,4.8968,4.8958,4.8933,4.8912,4.8916,4.8875,4.8865,4.8841,4.8802,4.8797,4.8758,4.8716,4.8693,4.8687,4.8656,4.8669,4.8671,4.8675,4.8685,4.8562,4.8681,4.8681,4.868,4.868,4.868,0,4.9135,4.9106,4.9098,4.9067,4.9059,4.901,4.8981,4.8977,4.8973,4.8943,4.8929,4.8916,4.8901,4.885,4.8829,4.8834,4.8809,4.8831,4.8829,4.8824,4.8714,4.8708,4.8851,4.8851,4.8851,4.8851,4.8851,4.8851,4.9206,4.9221,4.9188,4.919,4.916,4.9155,4.9143,4.9123,4.9098,4.9088,4.9075,4.9042,4.9003,4.8979,4.8963,4.8948,4.8943,4.8973,4.895,4.8848,4.8832,4.8816,4.881,4.8973,4.8973,4.9061,4.9062,4.9062]}]]